DELTA 1 DEB, 7046

Orbit data source: Space-Track

DELTA 1 DEB, 7046 is space debris in SSO originally from a launch on Tue, 06 Nov 1973 UTC launched from the Air Force Western Test Range (AFWTR). Debris objects in space refer to the collection of defunct objects orbiting the Earth. Examples of debris include non-operational satellites, rocket bodies, and fragments generated from explosions, collisions, or faulty payload assembly.

Loading next visibility...
Identifier
7046, 1973-086AN
Orbit
SSO
Country
Flag of USUS
Related business
Manufacturer
Unknown
Mission
Spacecraft
Bus & Motor
Unknown
Mass
Unknown
Launch date (UTC)
1973-11-06 (53 years ago)
Launch vehicle
Unknown
Launch site
Air Force Western Test Range (AFWTR)
Object type
Payload
Rocket body
Debris
Shape & HBR
Unknown shape, 0.1 m
Radar Cross Section
Medium (>0.1 m² and <1 m²)

Expand to show TLE details & history
Last TLE update: 3 days ago

TLE from 3 days ago
0 DELTA 1 DEB
1 07046U 73086AN  26206.33811441 -.00000016  00000-0  25483-3 0  9995
2 07046 102.5142 227.7988 0056954 306.0229  68.2095 12.29403270358701
Epoch: 2026-07-25T08:06Z
TLE epoch observation values (Epoch: 2026-07-25T08:06:53.085Z)
Latitude
14.4567°
Longitude
159.76138°
Altitude
1,537.109 km
Speed
7.106 km/s
True Right ascension
14h 58m 08s
True Declination
14° 22' 55"
Sunlit
Object was in daylight at epoch
Visualization orbit readout
Latitude
Unknown
Longitude
Unknown
Altitude
Unknown
Speed
Unknown
Apparent Right ascension
Unknown
Apparent Declination
Unknown
Sunlit
N/A
Visualization observer readout
Local Sidereal Time
07:33:49
Azimuth
Unknown
Elevation
Unknown
Doppler factor
Unknown
Orbital elements
Apogee altitude
1,594.617 km
Perigee altitude
1,504.315 km
Semi-major axis
7,927.603 km
Eccentricity
0.0057
Inclination
102.5142°
RAAN
227.7988°
Arg. of periapsis
306.0229°
True anomaly
68.81711°
Mean anomaly
68.2095°
Eccentric anomaly
68.51314°
Mean motion
3.0749 °/min
Orbital period
117.08 mins
BSTAR
0.00025483
Loading maneuver chart data...
Computing Atmospheric mass density...
Loading historical data...
Loading historical data...
Loading historical data...
Loading historical data...
Loading historical data...
Loading historical data...
Loading historical data...

Documentation

Showing up to 5 results
|